Regional Weather Roundup
Issued by NWS Portland, ME

Current Version | Previous Version | Text Only | Print | Product List | Glossary Off
Versions: 1 2 3 4 5 6 7 8 9 10 11 12 13 14 15 16 17 18 19 20 21 22 23 24 25 26 27 28 29 30 31 32 33 34 35 36 37 38 39 40 41 42 43 44 45 46 47 48 49 50
141 ASUS41 KGYX 180310 RWRGYX WEATHER ROUNDUP FOR MAINE AND NEW HAMPSHIRE NATIONAL WEATHER SERVICE GRAY ME 1000 PM EST SUN DEC 17 2017 MEZ002-005-006-010-012-015-018-020-021-024-026-027-029-180400- MAINE CITY SKY/WX TMP DP RH WIND PRES REMARKS PORTLAND CLOUDY 13 3 64 VRB3 30.28S SANFORD PTCLDY 5 1 83 SW3 30.27F BAR HARBOR CLEAR 10 0 63 NW5 30.28R WISCASSET PTCLDY 9 4 80 CALM 30.29S ROCKLAND PTCLDY 12 3 67 NW3 30.27F FRYEBURG CLOUDY 1 -1 91 CALM 30.24F LEWISTONAUBURN CLOUDY 8 0 69 SW5 30.25S AUGUSTA CLOUDY 11 1 64 CALM 30.24F WATERVILLE CLOUDY 4 -2 76 CALM 30.20F BANGOR CLOUDY 8 -1 66 W5 30.26R GREENVILLE N/A 3 -5 69 NW12 30.10R WCI -13 MILLINOCKET CLOUDY 6 -4 63 W5 30.21R HOULTON CLOUDY 1 -4 79 NE3 30.18S PRESQUE ISLE CLOUDY -8 -12 83 W5 30.19S FRENCHVILLE CLOUDY -3 -7 82 NW10 30.11F WCI -20 CARIBOU CLOUDY -3 -8 79 CALM 30.16S $$ NHZ002-005-008-009-011-012-014-180400- NEW HAMPSHIRE CITY SKY/WX TMP DP RH WIND PRES REMARKS PORTSMOUTH CLOUDY 19 3 50 W5 30.26F ROCHESTER CLOUDY 14 5 67 CALM 30.25S NASHUA PTCLDY 19 9 65 CALM 30.27F MANCHESTER CLOUDY 20 6 55 N6 30.25F CONCORD PTCLDY 15 7 70 CALM 30.26S LACONIA CLOUDY 14 3 61 CALM 30.23F PLYMOUTH FAIR 9 4 79 CALM 30.24F BERLIN CLOUDY -6 -10 83 CALM 30.20S WHITEFIELD CLOUDY -4 -9 79 CALM 30.20F JAFFREY PTCLDY 12 8 84 CALM 30.20F KEENE MOCLDY 13 10 88 S3 30.25F LEBANON CLOUDY 9 5 84 CALM 30.25F MT WASHINGTON PTCLDY 10 -17 28 NW30 N/A WCI -12 $$ VTZ005-007-008-180400- VERMONT CITY SKY/WX TMP DP RH WIND PRES REMARKS ST JOHNSBURY N/A 0 -3 87 MISG 30.24F MONTPELIER CLOUDY 1 -2 87 N3 30.24S BURLINGTON CLOUDY 7 1 76 E3 30.27S $$ MAZ007-012-024-CTZ003-RIZ002-NYZ038-NYZ072-180400- SOUTHERN NEW ENGLAND AND NY CITY SKY/WX TMP DP RH WIND PRES REMARKS BOSTON CLOUDY 25 5 42 N8 30.27F WORCESTER CLOUDY 19 6 57 CALM 30.20F NANTUCKET CLOUDY 29 10 45 N3 30.26F PROVIDENCE CLOUDY 26 13 57 CALM 30.26F HARTFORD CLOUDY 24 13 62 CALM 30.25F ALBANY MOCLDY 20 9 62 N3 30.26F NEW YORK CITY CLOUDY 35 25 66 E7 30.24F $$ ANZ081-ANZ082-ANZ150-NHZ014-MEZ023>029-180400- COASTAL MARINE OBSERVATIONS STATION/POSITION TIME TEMP WIND PRES WAVE AIR SEA DIR/SP/G HT/PER (UTC) (F) (DEG/KT/KT) (MB) (FT/S) MOUNT DESERT ROC 0300 20 300/ 15/ 18 1024.6R MATINICUS ROCK 0200 21 330/ 14/ 16 1024.1S ISLE OF SHOALS 0200 23 320/ 7/ 9 1025.1F JEFFREYS LEDGE 0236 47 N/A 2/ 4 GEORGES BANK BUO 0150 38 50 1022.4 6/ 8 $$ .............KEY.............. WCI - WIND CHILL TC - TEMPERATURE IN CELSIUS VSB - VISIBILITY IN MILES HX - HEAT INDEX FAIR- INDICATES FEW OR NO CLOUDS BELOW 12,000 FT, WITH NO SIGNIFICANT WEATHER AND/OR OBSTRUCTIONS TO VISIBILITY.

USA.gov is the U.S. government's official web portal to all federal, state and local government web resources and services.